[[{"header":{"parameterUnit":"m.s-1","parameterCategory":1,"la1":30.2991,"la2":30.254,"lo1":-89.0895,"lo2":-89.0444,"dy":0.0017,"dx":0.0017,"nx":28,"ny":28,"refTime":"2023-10-01T21:00:00:Z","depth":0,"parameterNumber":2,"parameterNumberName":"U-component_of_WINDS"},"data":[0,0,0,0,0,0,0,0,0,0,0,0,0,0,0,0,0,0,0,0,0,0,0,0,0,0,0,0,0,0,0,0,0,0,0,0,0,0,0,0,0,0,0,0,0,0,0,0,0,0,0,0,0,0,0,0,0,0,-5.7666,-5.7666,0,-5.7674,-5.7674,-5.7674,-5.7543,-5.754,-5.7536,-5.7533,-5.7542,-5.7545,-5.7549,0,0,0,0,0,0,0,0,0,0,0,0,0,-5.7542,-5.7545,-5.7666,-5.7666,-5.7666,-5.7674,-5.7674,-5.7674,-5.7544,-5.754,-5.7535,-5.7531,-5.7541,-5.7545,-5.7549,0,0,0,0,0,0,0,0,0,0,0,0,0,-5.7578,-5.7546,-5.7666,-5.7603,-5.7597,-5.7674,-5.7674,-5.7674,-5.7545,-5.754,-5.7534,-5.7529,-5.7539,-5.7544,-5.755,-5.7688,0,0,-5.7566,-5.7568,0,0,0,0,0,0,0,0,-5.7576,-5.7582,-5.7612,-5.7607,-5.7601,-5.7602,-5.7633,-5.7679,-5.7546,-5.7565,-5.7533,-5.7527,-5.7566,-5.7569,-5.7582,-5.7689,-5.7689,-5.7566,-5.757,-5.7572,-5.7573,0,0,0,0,0,0,0,-5.7573,-5.7581,-5.7669,-5.7612,-5.7606,-5.7574,-5.7573,-5.7641,-5.7595,-5.7563,-5.7553,-5.7556,-5.7562,-5.7577,-5.7581,-5.7689,-5.7566,-5.7571,-5.7574,-5.7576,-5.791,-5.7916,0,0,0,0,0,0,-5.7579,-5.758,-5.7669,-5.7669,-5.7575,-5.7581,-5.758,-5.7607,-5.7594,-5.7587,-5.756,-5.755,-5.7571,-5.7575,-5.7581,-5.7742,-5.7572,-5.7577,-5.758,-5.7905,-5.7912,-5.7918,0,0,0,0,0,0,-5.7577,-5.7588,-5.7669,-5.7622,-5.763,-5.7589,-5.762,-5.761,-5.7625,-5.7592,-5.7584,-5.7584,-5.7567,-5.7574,-5.7662,-5.774,-5.7579,-5.7584,-5.7898,-5.7907,-5.7915,-5.8065,0,0,0,0,0,0,-5.7574,-5.7588,-5.764,-5.7624,-5.7633,-5.775,-5.7625,-5.7614,-5.7634,-5.762,-5.7612,-5.7606,-5.7563,-5.7655,-5.7668,-5.7745,-5.7588,-5.7891,-5.7902,-5.7912,-5.8053,-5.8078,-5.8099,0,0,0,0,0,-5.757,-5.7682,-5.7643,-5.7655,-5.7696,-5.7754,-5.7759,-5.7708,-5.7641,-5.7692,-5.7672,-5.7606,-5.7731,-5.7666,-5.7678,-5.7758,-5.7885,-5.7899,-5.7911,-5.8042,-5.8073,-5.8098,0,0,0,0,0,0,-5.7708,-5.7679,-5.7635,-5.7745,-5.7753,-5.7732,-5.7795,-5.7741,-5.7769,-5.7755,-5.769,-5.769,-5.7789,-5.7783,-5.7711,-5.7892,-5.7796,-5.7812,-5.7892,-5.792,-5.7943,-5.7941,-5.7592,0,0,0,0,0,-5.7751,-5.78,-5.7772,-5.7872,-5.7878,-5.7837,-5.786,-5.782,-5.7826,-5.7829,-5.7814,-5.7823,-5.7864,-5.7892,-5.7928,-5.8052,-5.8049,-5.8114,-5.8137,-5.8156,-5.817,-5.8235,-5.8264,-5.796,-5.796,-5.796,0,0,-5.784,-5.7831,-5.7865,-5.79,-5.7901,-5.7953,-5.784,-5.7901,-5.7939,-5.7838,-5.792,-5.7911,-5.7916,-5.8024,-5.807,-5.8021,-5.8254,-5.8172,-5.8188,-5.8191,-5.8251,-5.828,-5.8306,-5.7969,-5.7967,-5.7966,0,0,-5.803,-5.8028,-5.811,-5.8115,-5.8118,-5.809,-5.8111,-5.8099,-5.8088,-5.817,-5.8095,-5.8141,-5.8213,-5.822,-5.8233,-5.8429,-5.8369,-5.8443,-5.8562,-5.8627,-5.865,-5.8671,-5.874,-5.8766,-5.8457,-5.8458,-5.8458,0,-5.814,-5.8215,-5.816,-5.8225,-5.8243,-5.8155,-5.8238,-5.8245,-5.8261,-5.8276,-5.8221,-5.831,-5.8308,-5.8415,-5.8463,-5.8478,-5.8499,-5.8442,-5.8652,-5.8672,-5.8691,-5.8755,-5.8782,-5.8467,-5.8466,-5.8465,-5.8464,0,-5.8351,-5.8405,-5.8472,-5.8489,-5.8514,-5.8589,-5.8545,-5.8578,-5.8537,-5.8516,-5.8601,-5.8596,-5.8629,-5.8652,-5.8613,-5.8755,-5.8725,-5.8663,-5.8564,-5.8729,-5.8789,-5.8814,-5.8479,-5.8476,-5.8473,-5.8471,0,0,-5.8624,-5.8611,-5.8636,-5.8643,-5.8643,-5.8684,-5.8755,-5.8788,-5.8817,-5.8832,-5.889,-5.8955,-5.8897,-5.8912,-5.8873,-5.8931,-5.9085,-5.8861,-5.886,-5.8901,-5.9241,-5.9287,-5.9316,-5.9047,-5.9051,-5.9055,-5.924,0,-5.8807,-5.8926,-5.888,-5.9004,-5.9053,-5.8972,-5.9034,-5.9041,-5.9024,-5.9064,-5.9045,-5.9091,-5.9012,-5.902,-5.9074,-5.9055,-5.9152,-5.9042,-5.91,-5.9103,-5.9098,-5.9348,-5.9396,-5.957,-5.9264,-5.9267,-5.927,0,-5.9035,-5.9059,-5.9188,-5.918,-5.9199,-5.9255,-5.9282,-5.9322,-5.9329,-5.9312,-5.9331,-5.928,-5.935,-5.9255,-5.9351,-5.9277,-5.9299,-5.9294,-5.93,-5.9301,-5.9195,-5.9354,-5.9625,-5.9651,-5.9307,-5.9304,-5.9301,0,-5.9219,-5.9285,-5.937,-5.9379,-5.9372,-5.9414,-5.9413,-5.9414,-5.9437,-5.9462,-5.9476,-5.9509,-5.9526,-5.9553,-5.9513,-5.9448,-5.9615,-5.9517,-5.9603,-5.9604,-5.964,-5.9637,-5.9916,-5.9658,-5.9658,-5.9657,-5.9657,0,-5.9427,-5.9509,-5.9453,-5.9505,-5.9595,-5.9542,-5.9633,-5.9623,-5.9626,-5.9675,-5.9608,-5.9656,-5.9601,-5.9645,-5.9614,-5.9698,-5.9707,-5.9696,-5.9686,-5.9701,-5.9702,-5.9712,-5.9698,-5.9664,-5.9663,-5.9661,-5.966,0,-5.9646,-5.9612,-5.97,-5.9687,-5.9685,-5.9752,-5.9741,-5.9789,-5.9768,-5.9832,-5.9844,-5.9812,-5.9859,-5.9823,-5.987,-5.985,-5.9961,-5.9935,-5.9958,-5.995,-6.0038,-6.0029,-6.033,-6.0367,-6.0088,-6.0091,-6.0093,0,-5.9779,-5.984,-5.9834,-5.9863,-5.9866,-5.9913,-5.9936,-5.9888,-5.9915,-5.9929,-5.9976,-6.0018,-6.0049,-6.0129,-6.011,-6.0147,-6.012,-6.0223,-6.0125,-6.0137,-6.012,-6.0116,-6.0121,-6.0242,-6.0246,-6.0248,-6.025,0,-6.0019,-6.0,-6.0036,-6.0068,-6.0098,-6.012,-6.0137,-6.0164,-6.0115,-6.015,-6.0198,-6.0222,-6.0271,-6.0313,-6.0343,-6.0343,-6.0289,-6.0282,-6.0304,-6.0317,-6.0327,-6.0322,-6.001,-6.0275,-6.0272,-6.027,-6.0269,-6.0268,-6.0198,-6.0249,-6.0253,-6.0296,-6.0304,-6.0322,-6.0366,-6.0352,-6.0391,-6.0426,-6.0396,-6.0454,-6.0461,-6.0495,-6.0502,-6.0547,-6.0505,-6.0536,-6.0544,-6.0552,-6.0564,-6.0323,-6.0553,-6.0552,-6.0552,-6.0551,-6.055,0,-6.0433,-6.0432,-6.0473,-6.0498,-6.0533,-6.048,-6.0497,-6.0529,-6.0581,-6.0592,-6.0624,-6.068,-6.0722,-6.0708,-6.0745,-6.0784,-6.076,-6.0795,-6.079,-6.0791,-6.06,-6.0577,-6.0814,-6.0814,-6.0814,-6.0814,-6.0813,-6.0813,-6.0559,-6.0642,-6.0624,-6.071,-6.0709,-6.0764,-6.0778,-6.0795,-6.0804,-6.0869,-6.0904,-6.0894,-6.0895,-6.0932,-6.0969,-6.0964,-6.098,-6.1024,-6.1009,-6.0831,-6.0805,-6.078,-6.0757,-6.1028,-6.1028,-6.1196,-6.1197,-6.1199]},{"header":{"parameterUnit":"m.s-1","parameterCategory":1,"la1":30.2991,"la2":30.254,"lo1":-89.0895,"lo2":-89.0444,"dy":0.0017,"dx":0.0017,"nx":28,"ny":28,"refTime":"2023-10-01T21:00:00:Z","depth":0,"parameterNumber":3,"parameterNumberName":"V-component_of_WINDS"},"data":[0,0,0,0,0,0,0,0,0,0,0,0,0,0,0,0,0,0,0,0,0,0,0,0,0,0,0,0,0,0,0,0,0,0,0,0,0,0,0,0,0,0,0,0,0,0,0,0,0,0,0,0,0,0,0,0,0,0,1.3279,1.328,0,1.3335,1.3335,1.3336,1.344,1.3442,1.3444,1.3446,1.3497,1.3496,1.3496,0,0,0,0,0,0,0,0,0,0,0,0,0,1.326,1.326,1.3279,1.328,1.3281,1.3335,1.3335,1.3336,1.344,1.3442,1.3445,1.3447,1.3497,1.3496,1.3496,0,0,0,0,0,0,0,0,0,0,0,0,0,1.3287,1.326,1.3279,1.3339,1.3345,1.3334,1.3335,1.3336,1.3439,1.3442,1.3445,1.3448,1.3497,1.3496,1.3496,1.3429,0,0,1.3493,1.3493,0,0,0,0,0,0,0,0,1.3285,1.3288,1.333,1.3335,1.3342,1.3384,1.3347,1.3367,1.3438,1.3403,1.3446,1.345,1.3456,1.3459,1.3463,1.3432,1.3434,1.3493,1.3492,1.3492,1.3492,0,0,0,0,0,0,0,1.3283,1.3286,1.3301,1.333,1.3337,1.3362,1.3369,1.3352,1.3412,1.3406,1.3414,1.342,1.346,1.3463,1.3464,1.3435,1.3493,1.3492,1.3492,1.3491,1.3354,1.3351,0,0,0,0,0,0,1.3273,1.3284,1.3299,1.3303,1.3321,1.336,1.3368,1.3367,1.3412,1.3422,1.3417,1.3424,1.3463,1.3465,1.3467,1.3392,1.3492,1.3491,1.3491,1.3357,1.3353,1.335,0,0,0,0,0,0,1.3273,1.3274,1.3297,1.3295,1.33,1.3357,1.3355,1.3366,1.337,1.342,1.3431,1.3409,1.3465,1.3468,1.3439,1.3395,1.3491,1.349,1.3361,1.3356,1.3351,1.3242,0,0,0,0,0,0,1.3272,1.3273,1.3249,1.3294,1.33,1.3269,1.3352,1.3365,1.3369,1.3379,1.3416,1.3425,1.3468,1.3439,1.3438,1.3396,1.349,1.3365,1.3358,1.3353,1.325,1.3234,1.3221,0,0,0,0,0,1.3271,1.3214,1.3247,1.3248,1.3271,1.3266,1.3269,1.3322,1.3365,1.334,1.3374,1.3424,1.3401,1.3435,1.3435,1.3392,1.3367,1.336,1.3353,1.3256,1.3237,1.3222,0,0,0,0,0,0,1.316,1.3221,1.3258,1.3215,1.3235,1.3284,1.3254,1.33,1.3306,1.3315,1.3379,1.3386,1.3348,1.3368,1.3405,1.3331,1.3392,1.3385,1.3319,1.3301,1.3287,1.3282,1.3489,0,0,0,0,0,1.3131,1.3123,1.3177,1.3134,1.3142,1.3196,1.3196,1.3235,1.3257,1.3265,1.3296,1.3314,1.3312,1.3308,1.3308,1.3255,1.3264,1.3225,1.3211,1.3199,1.319,1.3164,1.3147,1.3326,1.3326,1.3326,0,0,1.307,1.3103,1.3093,1.3112,1.3132,1.3121,1.3202,1.3187,1.3179,1.3263,1.3237,1.3261,1.3285,1.3243,1.3227,1.3258,1.3144,1.319,1.318,1.3178,1.3154,1.3137,1.3122,1.3321,1.3322,1.3323,0,0,1.2953,1.2978,1.2945,1.2964,1.2994,1.3031,1.3023,1.3066,1.3085,1.3062,1.3124,1.3116,1.311,1.3125,1.3131,1.3024,1.307,1.3022,1.2946,1.2919,1.2905,1.2892,1.2853,1.2838,1.3015,1.3014,1.3014,0,1.2872,1.286,1.2921,1.2903,1.2909,1.2988,1.2954,1.2969,1.2997,1.2999,1.3035,1.3031,1.3053,1.3016,1.299,1.2993,1.2985,1.3017,1.2902,1.2891,1.288,1.2843,1.2828,1.3008,1.3009,1.301,1.301,0,1.2759,1.275,1.272,1.2747,1.275,1.2724,1.2781,1.2777,1.2817,1.285,1.2825,1.2855,1.2863,1.2858,1.2896,1.2826,1.2845,1.2891,1.2953,1.2856,1.2822,1.2808,1.2999,1.3002,1.3004,1.3005,0,0,1.257,1.2635,1.2622,1.2636,1.2677,1.267,1.2648,1.2658,1.2653,1.2671,1.2653,1.2648,1.2691,1.2699,1.2739,1.2716,1.2628,1.2765,1.2767,1.2737,1.2553,1.2517,1.2499,1.2661,1.2658,1.2656,1.2551,0,1.246,1.2427,1.2483,1.2436,1.2428,1.2504,1.2485,1.2507,1.2539,1.2536,1.257,1.2565,1.2623,1.2628,1.2609,1.2643,1.2592,1.2652,1.2643,1.2642,1.2632,1.2482,1.2443,1.2342,1.2538,1.2536,1.2534,0,1.2326,1.234,1.2293,1.2338,1.2337,1.2318,1.2333,1.233,1.2357,1.2382,1.2392,1.2441,1.2422,1.2485,1.2459,1.2499,1.2499,1.2515,1.2513,1.2512,1.258,1.2475,1.2311,1.2294,1.2514,1.2516,1.2517,0,1.2191,1.2198,1.2171,1.2181,1.2233,1.2218,1.2239,1.227,1.2273,1.2286,1.2289,1.2298,1.2303,1.2309,1.2359,1.2401,1.2327,1.2394,1.2345,1.2343,1.2323,1.2323,1.2154,1.2327,1.2327,1.2328,1.2328,0,1.2061,1.2029,1.2111,1.2094,1.206,1.2126,1.209,1.2119,1.2146,1.2135,1.2202,1.219,1.2259,1.2255,1.2294,1.2266,1.2268,1.2286,1.2297,1.2279,1.2276,1.2278,1.2285,1.2324,1.2325,1.2325,1.2326,0,1.1903,1.1957,1.1932,1.1986,1.1998,1.1971,1.2016,1.2002,1.2039,1.2025,1.2025,1.2082,1.2081,1.2134,1.2142,1.2169,1.2122,1.2147,1.2113,1.212,1.2067,1.2071,1.1892,1.1871,1.2058,1.2056,1.2055,0,1.1815,1.1792,1.1844,1.1843,1.1861,1.1858,1.1863,1.1927,1.1928,1.1959,1.1941,1.1946,1.1953,1.1947,1.1988,1.1995,1.2019,1.1956,1.202,1.2003,1.2016,1.2016,1.2013,1.1941,1.1939,1.1937,1.1935,0,1.1653,1.1681,1.1686,1.1701,1.1705,1.1719,1.1737,1.1732,1.1802,1.1801,1.1801,1.1807,1.1817,1.182,1.1836,1.1857,1.1906,1.1916,1.1904,1.1884,1.1865,1.1873,1.2074,1.1918,1.192,1.1921,1.1922,1.1923,1.1526,1.151,1.1544,1.1548,1.1569,1.1585,1.1575,1.1612,1.1615,1.1629,1.1667,1.1661,1.1691,1.1717,1.1734,1.173,1.1761,1.1745,1.174,1.1735,1.1724,1.1868,1.1733,1.1733,1.1734,1.1734,1.1735,0,1.1366,1.1393,1.1396,1.142,1.1423,1.1474,1.1498,1.1496,1.149,1.1515,1.1521,1.1522,1.1527,1.157,1.1579,1.1567,1.1591,1.1567,1.1568,1.1571,1.1696,1.1704,1.1549,1.1549,1.1549,1.1549,1.1549,1.1549,1.1283,1.1258,1.1291,1.1278,1.1305,1.1302,1.1311,1.1326,1.1346,1.1344,1.1349,1.1379,1.1411,1.1423,1.1429,1.1442,1.1441,1.141,1.143,1.1545,1.1563,1.158,1.1587,1.141,1.1409,1.1305,1.1304,1.1303]}]]